Regional Weather Roundup
Issued by NWS

Home | Current Version | Previous Version | Graphics & Text | Print | Product List | Glossary On
Versions: 1 2 3 4 5 6 7 8 9 10 11 12 13 14 15 16 17 18 19 20 21 22 23 24 25 26 27 28 29 30 31 32 33 34 35 36 37 38 39 40 41 42 43 44 45 46 47 48 49 50
000
ASUS44 KMEG 290410
RWRTN
TENNESSEE HOURLY STATE WEATHER ROUNDUP
NATIONAL WEATHER SERVICE MEMPHIS TN
1100 PM CDT SAT MAR 28 2015

TNZ002-004-019-021-049-052-054-088>092-290500-
WEST TENNESSEE

CITY           SKY/WX    TMP DP  RH WIND       PRES   REMARKS
MEMPHIS INTL   MOCLDY    41  28  60 CALM      30.32S
NWS MEMPHIS      N/A     35 N/A N/A MISG        N/A
JACKSON        CLEAR     30  24  78 CALM      30.33R
DYERSBURG      CLEAR     34  18  51 CALM      30.34S
UNION CITY     CLEAR     34  21  60 CALM      30.31S
PARIS          CLEAR     27  18  69 NE3       30.33S
LEXINGTON      CLEAR     30  18  59 CALM      30.31R
SAVANNAH       CLEAR     28  25  86 CALM      30.33R
$$

TNZ008-025-027-028-033-062-065-066-290500-
NORTH MIDDLE TENNESSEE

CITY           SKY/WX    TMP DP  RH WIND       PRES   REMARKS
NASHVILLE      CLEAR     33  18  53 CALM      30.34R
CLARKSVILLE    CLEAR     34  14  43 CALM      30.34R
SMYRNA         CLEAR     29  21  71 CALM      30.36R
COOKEVILLE     CLEAR     27  19  74 CALM      30.31R
CROSSVILLE     CLEAR     31  12  45 N5        30.29R WCI  26
$$

TNZ061-075-076-078-094-096-097-290500-
SOUTH MIDDLE TENNESSEE

CITY           SKY/WX    TMP DP  RH WIND       PRES   REMARKS
FAYETTEVILLE   CLEAR     34  12  40 NE5       30.31R WCI  30
TULLAHOMA      CLEAR     28  16  59 CALM      30.32R
WINCHESTER     CLEAR     27  23  86 CALM      30.32R
MCMINNVILLE    CLEAR     28  19  69 E16       30.32R WCI  17
COLUMBIA       CLEAR     30  28  93 CALM      30.31S
SHELBYVILLE    CLEAR     30  23  74 CALM      30.33R
$$

TNZ017-018-042-046-047-290500-
NORTHEAST TENNESSEE

CITY           SKY/WX    TMP DP  RH WIND       PRES   REMARKS
TRI CITIES     CLEAR     32   8  36 CALM      30.28R
ELIZABETHTON   CLEAR     27  10  50 CALM      30.27R
$$

TNZ012-013-036-069-073-074-290500-
CENTRAL EAST TENNESSEE

CITY           SKY/WX    TMP DP  RH WIND       PRES   REMARKS
KNOXVILLE      CLEAR     35  13  40 N7        30.31R WCI  29
OAK RIDGE      CLEAR     35  14  42 CALM      30.33R
GATLINBURG     CLEAR     28  18  64 CALM      30.31R
MORRISTOWN     CLEAR     32  14  47 N3        30.30R
$$

TNZ083-085-099-290500-
SOUTHEAST TENNESSEE

CITY           SKY/WX    TMP DP  RH WIND       PRES   REMARKS
CHATTANOOGA    CLEAR     39  14  36 N6        30.31R WCI  35
$$

SKY/WX REPORTED AS FAIR MEANS FEW OR NO CLOUDS BELOW
12 THOUSAND FEET.



USA.gov is the U.S. government's official web portal to all federal, state and local government web resources and services.